{"data":{"norad_id":52619,"intl_designator":"2022-052X","name":"STARLINK-3741","alt_names":[],"object_type":"PAYLOAD","status":"ACTIVE","operator":null,"country":"US","launch_date":"2022-05-14","launch_site_code":"AFETR","launch_vehicle":null,"mission":null,"orbit_class":"UNKNOWN","rcs_meters":null,"size_class":null,"mass_kg":null,"dimensions":null,"purposes":["comms"],"wikipedia_slug":null,"has_3d_model":false,"image_url":null,"decayed_at":null,"tle_current":{"epoch":"2026-09-20T01:47:22.073856Z","epoch_age_seconds":103236,"freshness":"FRESH","line1":"1 52619U 22052X   26263.07456104  .00000986  00000+0  40327-4 0  9992","line2":"2 52619  53.1608 101.6300 0000995 102.5550 257.5564 15.34386194240532","mean_motion":15.34386194,"eccentricity":9.95e-5,"inclination_deg":53.1608,"raan_deg":101.63,"arg_perigee_deg":102.555,"mean_anomaly_deg":257.5564,"bstar":4.0327e-5,"rev_number":24053,"period_min":93.84860249857,"perigee_km":462.06360716942,"apogee_km":463.42494254312,"semimajor_km":6840.8812748563,"source":"CELESTRAK","updated_at":"2026-09-20T09:00:40.071487Z"}}}